[[{"header":{"parameterUnit":"m.s-1","parameterCategory":1,"la1":30.2991,"la2":30.254,"lo1":-89.0895,"lo2":-89.0444,"dy":0.0017,"dx":0.0017,"nx":28,"ny":28,"refTime":"2023-08-30T03:00:00:Z","depth":0,"parameterNumber":2,"parameterNumberName":"U-component_of_WINDS"},"data":[0,0,0,0,0,0,0,0,0,0,0,0,0,0,0,0,0,0,0,0,0,0,0,0,0,0,0,0,0,0,0,0,0,0,0,0,0,0,0,0,0,0,0,0,0,0,0,0,0,0,0,0,0,0,0,0,0,0,-0.0914,-0.0913,0,-0.0823,-0.0822,-0.0821,-0.0761,-0.0761,-0.0761,-0.076,-0.0664,-0.0662,-0.066,0,0,0,0,0,0,0,0,0,0,0,0,0,-0.1033,-0.1031,-0.0914,-0.0913,-0.0912,-0.0823,-0.0822,-0.082,-0.0762,-0.0761,-0.0761,-0.076,-0.0665,-0.0663,-0.066,0,0,0,0,0,0,0,0,0,0,0,0,0,-0.0966,-0.1031,-0.0914,-0.0872,-0.0867,-0.0823,-0.0822,-0.082,-0.0762,-0.0761,-0.0761,-0.076,-0.0666,-0.0663,-0.066,-0.065,0,0,-0.0649,-0.0648,0,0,0,0,0,0,0,0,-0.0969,-0.0961,-0.0879,-0.0874,-0.0869,-0.0803,-0.0828,-0.0763,-0.0762,-0.0802,-0.076,-0.076,-0.0711,-0.0704,-0.0688,-0.0646,-0.0642,-0.0649,-0.0647,-0.0646,-0.0645,0,0,0,0,0,0,0,-0.0974,-0.0965,-0.0878,-0.0878,-0.0872,-0.0856,-0.0846,-0.0816,-0.076,-0.0798,-0.0794,-0.0784,-0.0708,-0.0691,-0.0685,-0.064,-0.0649,-0.0646,-0.0644,-0.0643,-0.0583,-0.0584,0,0,0,0,0,0,-0.0986,-0.0969,-0.0881,-0.0875,-0.0919,-0.0854,-0.0843,-0.0825,-0.076,-0.075,-0.0784,-0.0781,-0.0697,-0.0689,-0.0682,-0.0665,-0.0646,-0.0643,-0.0641,-0.0583,-0.0583,-0.0584,0,0,0,0,0,0,-0.0989,-0.0979,-0.0884,-0.0921,-0.0908,-0.0853,-0.0833,-0.0823,-0.0806,-0.075,-0.074,-0.0778,-0.0696,-0.0686,-0.0658,-0.0661,-0.0641,-0.0638,-0.0582,-0.0583,-0.0584,-0.0633,0,0,0,0,0,0,-0.0993,-0.098,-0.0977,-0.0921,-0.0906,-0.0864,-0.0833,-0.0822,-0.0801,-0.0796,-0.0741,-0.0731,-0.0695,-0.0663,-0.0655,-0.0656,-0.0636,-0.0582,-0.0583,-0.0583,-0.0631,-0.0635,-0.0639,0,0,0,0,0,-0.0997,-0.0994,-0.0977,-0.0967,-0.0901,-0.0864,-0.0855,-0.0815,-0.0802,-0.0797,-0.0761,-0.0733,-0.0662,-0.0661,-0.0651,-0.0651,-0.0581,-0.0582,-0.0583,-0.0629,-0.0634,-0.0639,0,0,0,0,0,0,-0.1052,-0.0986,-0.0967,-0.0946,-0.0911,-0.0854,-0.0848,-0.0822,-0.0789,-0.0786,-0.0736,-0.0724,-0.07,-0.0673,-0.0673,-0.0637,-0.0618,-0.0617,-0.0656,-0.0661,-0.0665,-0.0672,-0.0633,0,0,0,0,0,-0.1061,-0.1038,-0.0982,-0.0969,-0.0952,-0.0903,-0.0886,-0.0857,-0.0819,-0.0803,-0.0765,-0.0728,-0.0696,-0.0677,-0.0646,-0.0626,-0.0612,-0.0621,-0.0625,-0.0629,-0.0628,-0.0614,-0.0617,-0.0587,-0.0587,-0.0587,0,0,-0.1081,-0.1042,-0.1031,-0.0979,-0.0949,-0.0924,-0.0891,-0.0867,-0.0848,-0.0799,-0.077,-0.0741,-0.0696,-0.0671,-0.0659,-0.0648,-0.0633,-0.063,-0.0633,-0.0631,-0.0615,-0.0618,-0.0621,-0.0587,-0.0587,-0.0587,0,0,-0.1104,-0.1074,-0.1059,-0.1029,-0.0983,-0.095,-0.0947,-0.0893,-0.0872,-0.0842,-0.0805,-0.078,-0.0729,-0.0698,-0.0675,-0.0685,-0.0657,-0.0676,-0.0697,-0.0683,-0.0686,-0.0688,-0.069,-0.0691,-0.0675,-0.0676,-0.0676,0,-0.1135,-0.1097,-0.1054,-0.1032,-0.101,-0.0965,-0.0949,-0.0921,-0.0867,-0.0852,-0.0841,-0.0774,-0.074,-0.0707,-0.071,-0.0693,-0.0686,-0.0682,-0.0689,-0.0691,-0.0692,-0.0693,-0.0694,-0.0678,-0.0678,-0.0678,-0.0677,0,-0.1136,-0.111,-0.1104,-0.1053,-0.103,-0.1011,-0.0964,-0.0945,-0.0918,-0.0886,-0.0855,-0.0813,-0.0772,-0.0762,-0.0735,-0.0724,-0.0719,-0.0699,-0.0679,-0.0698,-0.0698,-0.0698,-0.0682,-0.0681,-0.068,-0.0679,0,0,-0.1192,-0.1117,-0.1115,-0.1091,-0.1037,-0.1016,-0.0994,-0.0954,-0.0938,-0.0902,-0.0881,-0.0837,-0.0818,-0.0792,-0.0762,-0.075,-0.0759,-0.0731,-0.0729,-0.0737,-0.0742,-0.0757,-0.0759,-0.074,-0.074,-0.074,-0.0746,0,-0.1207,-0.1166,-0.1126,-0.1099,-0.1074,-0.103,-0.101,-0.0974,-0.0943,-0.0916,-0.0881,-0.085,-0.0828,-0.0812,-0.0799,-0.0761,-0.0759,-0.076,-0.0719,-0.0718,-0.0731,-0.0759,-0.0775,-0.0783,-0.0746,-0.0746,-0.0746,0,-0.1219,-0.1185,-0.1156,-0.1102,-0.109,-0.1073,-0.1032,-0.1008,-0.0965,-0.0943,-0.0913,-0.0881,-0.0853,-0.0836,-0.0797,-0.0798,-0.0779,-0.0757,-0.0757,-0.0751,-0.0733,-0.0753,-0.0784,-0.0785,-0.0746,-0.0746,-0.0746,0,-0.1261,-0.1208,-0.1183,-0.1164,-0.1102,-0.1091,-0.1064,-0.102,-0.0998,-0.0962,-0.0947,-0.0908,-0.0886,-0.0856,-0.0812,-0.0804,-0.0777,-0.0757,-0.0757,-0.0758,-0.0753,-0.0754,-0.078,-0.0742,-0.0742,-0.0742,-0.0742,0,-0.1282,-0.1265,-0.1202,-0.1187,-0.1166,-0.1119,-0.11,-0.1069,-0.103,-0.1007,-0.0966,-0.0945,-0.0889,-0.0861,-0.0827,-0.0798,-0.0789,-0.0769,-0.076,-0.0773,-0.0775,-0.0759,-0.0757,-0.0742,-0.0742,-0.0742,-0.0742,0,-0.1326,-0.1283,-0.1253,-0.1196,-0.1181,-0.1168,-0.1118,-0.1101,-0.1067,-0.1038,-0.1028,-0.0975,-0.0939,-0.0893,-0.0842,-0.0819,-0.0794,-0.0781,-0.0809,-0.0804,-0.0806,-0.0806,-0.0823,-0.0822,-0.0785,-0.0786,-0.0786,0,-0.1342,-0.1328,-0.1269,-0.1251,-0.1226,-0.1197,-0.1174,-0.1127,-0.1104,-0.1053,-0.1042,-0.1003,-0.0969,-0.0914,-0.0869,-0.083,-0.0814,-0.0823,-0.0808,-0.082,-0.0813,-0.0814,-0.0812,-0.0827,-0.0827,-0.0828,-0.0828,0,-0.1374,-0.1353,-0.1322,-0.1283,-0.1257,-0.1224,-0.1189,-0.1176,-0.1121,-0.1098,-0.1061,-0.1035,-0.0983,-0.0944,-0.0899,-0.0869,-0.0839,-0.0833,-0.0831,-0.0843,-0.086,-0.085,-0.0818,-0.0833,-0.0833,-0.0832,-0.0832,-0.0832,-0.1404,-0.1389,-0.1345,-0.1311,-0.128,-0.1248,-0.1228,-0.1192,-0.116,-0.1115,-0.1089,-0.1052,-0.1007,-0.0943,-0.0915,-0.0884,-0.0873,-0.087,-0.0869,-0.0869,-0.0872,-0.0865,-0.0876,-0.0876,-0.0875,-0.0875,-0.0875,0,-0.1433,-0.1402,-0.1372,-0.1324,-0.1297,-0.1272,-0.1231,-0.121,-0.1179,-0.114,-0.1108,-0.1064,-0.1026,-0.0978,-0.0936,-0.0921,-0.0906,-0.0911,-0.0912,-0.0905,-0.0885,-0.0891,-0.0924,-0.0924,-0.0924,-0.0924,-0.0924,-0.0924,-0.1445,-0.1418,-0.1391,-0.1348,-0.1316,-0.1281,-0.126,-0.123,-0.1198,-0.1152,-0.112,-0.1089,-0.1046,-0.1,-0.0963,-0.095,-0.0936,-0.0946,-0.0928,-0.0911,-0.0907,-0.0902,-0.0908,-0.0943,-0.0943,-0.095,-0.095,-0.095]},{"header":{"parameterUnit":"m.s-1","parameterCategory":1,"la1":30.2991,"la2":30.254,"lo1":-89.0895,"lo2":-89.0444,"dy":0.0017,"dx":0.0017,"nx":28,"ny":28,"refTime":"2023-08-30T03:00:00:Z","depth":0,"parameterNumber":3,"parameterNumberName":"V-component_of_WINDS"},"data":[0,0,0,0,0,0,0,0,0,0,0,0,0,0,0,0,0,0,0,0,0,0,0,0,0,0,0,0,0,0,0,0,0,0,0,0,0,0,0,0,0,0,0,0,0,0,0,0,0,0,0,0,0,0,0,0,0,0,-3.229,-3.2289,0,-3.225,-3.2249,-3.2249,-3.2288,-3.229,-3.2291,-3.2293,-3.2244,-3.2241,-3.2239,0,0,0,0,0,0,0,0,0,0,0,0,0,-3.2397,-3.2395,-3.229,-3.2289,-3.2289,-3.225,-3.2249,-3.2249,-3.2288,-3.229,-3.2292,-3.2293,-3.2245,-3.2242,-3.2238,0,0,0,0,0,0,0,0,0,0,0,0,0,-3.2353,-3.2394,-3.229,-3.2304,-3.2305,-3.225,-3.2249,-3.2248,-3.2287,-3.229,-3.2292,-3.2294,-3.2246,-3.2242,-3.2238,-3.2165,0,0,-3.2225,-3.2223,0,0,0,0,0,0,0,0,-3.2355,-3.2349,-3.2302,-3.2303,-3.2304,-3.2277,-3.2269,-3.222,-3.2287,-3.2294,-3.2293,-3.2295,-3.2252,-3.2248,-3.2235,-3.2162,-3.216,-3.2225,-3.2222,-3.222,-3.2219,0,0,0,0,0,0,0,-3.2358,-3.2351,-3.2274,-3.2302,-3.2302,-3.2311,-3.2307,-3.226,-3.226,-3.2293,-3.2296,-3.2291,-3.2253,-3.2239,-3.2234,-3.216,-3.2225,-3.2221,-3.2219,-3.2217,-3.2029,-3.2026,0,0,0,0,0,0,-3.236,-3.2353,-3.2275,-3.2273,-3.2336,-3.2307,-3.2303,-3.2283,-3.2261,-3.226,-3.2289,-3.2293,-3.2245,-3.2239,-3.2232,-3.2147,-3.222,-3.2217,-3.2214,-3.2031,-3.2028,-3.2025,0,0,0,0,0,0,-3.2363,-3.2353,-3.2277,-3.2314,-3.2305,-3.2303,-3.228,-3.2281,-3.2266,-3.2258,-3.2257,-3.2275,-3.2246,-3.2238,-3.2183,-3.2146,-3.2215,-3.2211,-3.2034,-3.203,-3.2027,-3.1974,0,0,0,0,0,0,-3.2365,-3.2354,-3.2326,-3.2313,-3.2302,-3.2228,-3.2277,-3.2278,-3.226,-3.2265,-3.2244,-3.2243,-3.2248,-3.2189,-3.2178,-3.2141,-3.2208,-3.2037,-3.2032,-3.2028,-3.1979,-3.1969,-3.196,0,0,0,0,0,-3.2369,-3.2311,-3.2325,-3.2315,-3.2269,-3.2226,-3.222,-3.2229,-3.2257,-3.2229,-3.2224,-3.2243,-3.2152,-3.2183,-3.2171,-3.2132,-3.204,-3.2034,-3.2028,-3.1983,-3.1971,-3.1961,0,0,0,0,0,0,-3.2316,-3.2309,-3.2324,-3.226,-3.2244,-3.2233,-3.2197,-3.2215,-3.2188,-3.2193,-3.2204,-3.2199,-3.214,-3.2131,-3.2165,-3.2062,-3.21,-3.2092,-3.207,-3.2058,-3.2049,-3.2051,-3.2204,0,0,0,0,0,-3.2298,-3.2265,-3.226,-3.2204,-3.2196,-3.2198,-3.218,-3.2189,-3.2171,-3.2164,-3.2155,-3.2135,-3.2103,-3.208,-3.2049,-3.1979,-3.1975,-3.1947,-3.1938,-3.193,-3.1922,-3.1886,-3.1874,-3.2007,-3.2007,-3.2007,0,0,-3.2257,-3.225,-3.2228,-3.2193,-3.2182,-3.2147,-3.2192,-3.2152,-3.2127,-3.2157,-3.2104,-3.2098,-3.2077,-3.2014,-3.1986,-3.2005,-3.1886,-3.1923,-3.1917,-3.1913,-3.1879,-3.1867,-3.1856,-3.2003,-3.2004,-3.2004,0,0,-3.2166,-3.2158,-3.2111,-3.21,-3.2084,-3.2087,-3.2076,-3.2063,-3.2061,-3.201,-3.2033,-3.2002,-3.1945,-3.193,-3.1914,-3.1824,-3.1841,-3.1814,-3.1764,-3.1729,-3.1718,-3.1709,-3.1677,-3.1665,-3.1807,-3.1806,-3.1806,0,-3.2117,-3.2068,-3.2084,-3.2045,-3.2029,-3.206,-3.2012,-3.2,-3.1973,-3.1961,-3.1984,-3.1916,-3.1903,-3.1839,-3.1818,-3.1804,-3.1792,-3.1815,-3.1719,-3.171,-3.1701,-3.1671,-3.1659,-3.1803,-3.1804,-3.1804,-3.1804,0,-3.2009,-3.1975,-3.1939,-3.1917,-3.1898,-3.1854,-3.1863,-3.1841,-3.1854,-3.1854,-3.1803,-3.1791,-3.1759,-3.1745,-3.1754,-3.1683,-3.1695,-3.1718,-3.1756,-3.1685,-3.1657,-3.1645,-3.1799,-3.18,-3.1801,-3.1802,0,0,-3.1878,-3.187,-3.1856,-3.1848,-3.1835,-3.1808,-3.1767,-3.174,-3.1721,-3.1703,-3.1668,-3.1623,-3.1646,-3.1628,-3.1637,-3.1607,-3.1537,-3.1634,-3.1634,-3.1616,-3.1458,-3.1439,-3.1425,-3.155,-3.1548,-3.1546,-3.146,0,-3.1787,-3.1718,-3.1734,-3.1665,-3.1634,-3.1666,-3.163,-3.1618,-3.1619,-3.1592,-3.1592,-3.156,-3.1592,-3.1583,-3.1554,-3.1552,-3.1505,-3.1559,-3.1516,-3.1515,-3.1519,-3.1411,-3.139,-3.1308,-3.1449,-3.1447,-3.1445,0,-3.167,-3.1652,-3.1581,-3.1577,-3.1564,-3.1532,-3.151,-3.1485,-3.1472,-3.1475,-3.1459,-3.1476,-3.1435,-3.1476,-3.142,-3.1456,-3.144,-3.1437,-3.1434,-3.1428,-3.1474,-3.14,-3.1282,-3.1269,-3.1428,-3.1429,-3.1431,0,-3.1581,-3.1539,-3.1492,-3.1484,-3.1478,-3.1455,-3.145,-3.1441,-3.1425,-3.1406,-3.1395,-3.137,-3.1356,-3.1336,-3.1345,-3.1375,-3.1288,-3.133,-3.1288,-3.1287,-3.1265,-3.1266,-3.1141,-3.1258,-3.1258,-3.1259,-3.1259,0,-3.1476,-3.1431,-3.1453,-3.1423,-3.1375,-3.1395,-3.1346,-3.1345,-3.1337,-3.1308,-3.1334,-3.1305,-3.1321,-3.1293,-3.13,-3.1253,-3.1247,-3.1247,-3.1249,-3.1243,-3.1243,-3.1231,-3.1236,-3.1255,-3.1256,-3.1257,-3.1257,0,-3.1367,-3.138,-3.1331,-3.1331,-3.133,-3.1294,-3.1294,-3.1267,-3.1272,-3.1235,-3.1227,-3.1235,-3.1205,-3.1213,-3.1179,-3.1184,-3.1125,-3.1135,-3.1129,-3.1131,-3.1089,-3.1092,-3.095,-3.0932,-3.1062,-3.1061,-3.106,0,-3.1297,-3.1265,-3.1263,-3.1248,-3.1243,-3.1216,-3.1201,-3.122,-3.1203,-3.119,-3.1164,-3.1138,-3.1117,-3.1067,-3.1068,-3.1043,-3.1052,-3.1004,-3.1048,-3.1044,-3.105,-3.1051,-3.1048,-3.0994,-3.0992,-3.0991,-3.099,0,-3.1174,-3.1183,-3.1162,-3.1144,-3.1127,-3.1113,-3.1101,-3.1086,-3.1105,-3.1085,-3.1056,-3.1041,-3.101,-3.0982,-3.0961,-3.0955,-3.0975,-3.0978,-3.0966,-3.0959,-3.0957,-3.0957,-3.1104,-3.0979,-3.0981,-3.0981,-3.0982,-3.0982,-3.1081,-3.1055,-3.1051,-3.1027,-3.1022,-3.1012,-3.0987,-3.0992,-3.0969,-3.0947,-3.096,-3.0927,-3.0919,-3.0893,-3.0885,-3.0859,-3.0877,-3.0861,-3.0856,-3.0851,-3.0846,-3.0964,-3.0855,-3.0855,-3.0856,-3.0856,-3.0856,0,-3.0958,-3.0959,-3.0938,-3.0923,-3.0905,-3.0931,-3.092,-3.0902,-3.0874,-3.0866,-3.0847,-3.0816,-3.0791,-3.0793,-3.077,-3.0749,-3.0757,-3.0742,-3.0742,-3.0741,-3.0831,-3.0843,-3.0735,-3.0735,-3.0735,-3.0735,-3.0735,-3.0735,-3.0891,-3.0848,-3.0858,-3.0813,-3.0814,-3.0784,-3.0776,-3.0767,-3.0761,-3.0726,-3.0707,-3.071,-3.0706,-3.0684,-3.0663,-3.0664,-3.0654,-3.0634,-3.0638,-3.0722,-3.0734,-3.0745,-3.0756,-3.0632,-3.0632,-3.055,-3.0549,-3.0549]}]]